DW4465 Weather Reports


Display with metric or nautical units.
time (UTC)temp
F
wind
direction
speed
MPH
gust
MPH
rain 1hr
in
rain 24hr
in
rain mn
in
humidity
%
barometer
mb
20260504044541 61 0 0.0 3.0 0.00 0.00 0.00 71 1015.3
20260504043039 61 360 1.0 4.0 0.00 0.00 0.00 71 1015.0
20260504041539 61 0 0.0 3.0 0.00 0.00 0.00 71 1014.9
20260504040045 61 0 0.0 3.0 0.00 0.00 0.00 71 1014.8
20260504034546 61 0 0.0 4.0 0.00 0.00 0.00 71 1014.7
20260504033038 61 293 1.0 7.0 0.00 0.00 0.00 71 1014.7
20260504031539 61 284 0.0 4.0 0.00 0.00 0.00 71 1014.4
20260504030042 62 311 2.0 7.0 0.00 0.00 0.00 70 1014.2
20260504024542 62 310 2.0 7.0 0.00 0.00 0.00 69 1014.1
20260504023042 63 292 1.0 7.0 0.00 0.00 0.00 68 1014.1
20260504021539 63 303 1.0 3.0 0.00 0.00 0.00 67 1013.9
20260504020039 64 289 1.0 5.0 0.00 0.00 0.00 66 1013.8
20260504014551 64 331 3.0 7.0 0.00 0.00 0.00 64 1013.6
20260504013049 65 290 0.0 3.0 0.00 0.00 0.00 64 1013.4
20260504011544 65 251 1.0 4.0 0.00 0.00 0.00 66 1013.4
20260504010041 65 295 1.0 4.0 0.00 0.00 0.00 66 1013.3
20260504004542 65 310 1.0 7.0 0.00 0.00 0.00 66 1013.3
20260504003048 66 298 2.0 6.0 0.00 0.00 0.00 66 1013.3
20260504001537 66 279 2.0 8.0 0.00 0.00 0.00 65 1013.2
20260504000046 66 298 2.0 6.0 0.00 0.00 0.00 62 1013.0
20260503234547 67 355 2.0 6.0 0.00 0.00 0.00 61 1013.1
20260503233040 68 244 2.0 7.0 0.00 0.00 0.00 60 1012.9
20260503231541 67 282 1.0 8.0 0.00 0.00 0.00 60 1013.1
20260503230041 68 294 1.0 6.0 0.00 0.00 0.00 58 1013.2
20260503224544 68 200 1.0 4.0 0.00 0.00 0.00 57 1013.3
20260503223042 68 273 1.0 4.0 0.00 0.00 0.00 56 1013.5
20260503221541 69 256 1.0 7.0 0.00 0.00 0.00 54 1013.6
20260503220048 68 206 2.0 10.0 0.00 0.00 0.00 54 1013.7
20260503214537 69 185 2.0 9.0 0.00 0.00 0.00 54 1013.8
20260503213055 69 182 4.0 9.0 0.00 0.00 0.00 54 1013.8
20260503211543 69 188 6.0 12.0 0.00 0.00 0.00 54 1013.8
20260503210041 70 190 3.0 11.0 0.00 0.00 0.00 52 1013.9
20260503204539 71 156 4.0 11.0 0.00 0.00 0.00 53 1013.7
20260503203051 72 119 3.0 8.0 0.00 0.00 0.00 54 1013.9
20260503201543 70 196 2.0 10.0 0.00 0.00 0.00 55 1014.0
20260503200048 69 126 3.0 9.0 0.00 0.00 0.00 55 1014.1
20260503194542 68 165 3.0 8.0 0.00 0.00 0.00 57 1014.2
20260503193046 69 155 4.0 10.0 0.00 0.00 0.00 57 1014.3
20260503191537 69 166 2.0 7.0 0.00 0.00 0.00 57 1014.4
20260503190037 67 17 1.0 6.0 0.00 0.00 0.00 59 1014.5
20260503184555 66 138 2.0 5.0 0.00 0.00 0.00 60 1014.7
20260503183053 66 0 2.0 6.0 0.00 0.00 0.00 59 1014.9
20260503181554 66 314 0.0 5.0 0.00 0.00 0.00 62 1014.9
20260503180037 65 198 1.0 5.0 0.00 0.00 0.00 63 1015.0
20260503174544 65 233 0.0 5.0 0.00 0.00 0.00 65 1015.0
20260503173045 64 186 2.0 4.0 0.00 0.00 0.00 66 1015.0
20260503171539 64 177 2.0 7.0 0.00 0.00 0.00 67 1014.6
20260503081606 60 173 1.0 3.0 0.00 0.00 0.00 82 1013.7
20260503071543 60 0 0.0 2.0 0.00 0.00 0.00 83 1013.3
20260503054551 60 0 0.0 3.0 0.00 0.00 0.00 82 1013.0
20260503053043 60 0 0.0 3.0 0.00 0.00 0.00 81 1013.2